DEBRISSAT-2 (43680 NORAD) Tracking and Keplerian Element Data

This shows tracking and keplerian element data for the satellite.

Feedback or suggestion? Click here.




ElementValue
Catalog43680
NameDEBRISSAT-2
Epoch Orbit6030
Epoch Day193.4320528
Epoch Year2019
RAAN222.597
Inclination51.6356
Eccentricity0.0002324
Argument of Perigee248.7788
Mean Anonmoly111.2958
Mean Motion15.63826727
Decay Rate0.00016519
L11 43680U 98067PR 19193.43205280 .00016519 00000-0 17805-3 0 9994
L22 43680 51.6356 222.5970 0002324 248.7788 111.2958 15.63826727 60304

Live tracking and technical data element details for DEBRISSAT-2 (NORAD 43680). DEBRISSAT-2 can be tracked NOW for your location showing map with azimuth and elevation plus other details from your city location.

Track the satellite on the map from your city or location and see movement details for azimuth, elevation, latitude, longitude, range, height, and movement on the map or in text.







IsCatalogInMostPopularTable: catalog: 43680, numindb: 166
Update: records affected: 1



GetName: 43680 DEBRISSAT-2

Hit Count: updated at: Mon, 15 Jul 2019 22:31:46 GMT